STARLINK-38043, 69712

Orbit data source: Space-Track

STARLINK-38043, 69712 is a payload satellite owned by SpaceX/Seattle (US) in SSO that was launched on Sun, 28 Jun 2026 UTC via an FALCON 9 launch vehicle from the Air Force Western Test Range (AFWTR). Payload-class satellites include a variety of spacecraft equipped with specific instruments for various scientific and technological missions. These include communications satellites like Starlink; space stations such as the ISS; scientific satellites like the Hubble; Earth observation satellites from companies like Planet Labs, Umbra, and HawkEye 360; GPS; miniature CubeSats for education and research; and military/defense satellites.

Loading next visibility...
Identifier
69712, 2026-147J
Orbit
SSO
Country
Flag of USUS
Related business
Manufacturer
SpaceX/Seattle
Mission
Operational Commercial Communications
Bus & Motor
STARLINK V2MO, Unknown motor
Mass
575 kg wet, ~530 kg dry
Launch date (UTC)
2026-06-28 (2 months ago)
Launch vehicle
FALCON 9
Launch site
Air Force Western Test Range (AFWTR)
Object type
Payload
Rocket body
Debris
Shape & HBR
Box + 1 Pan, 17.7 m
Radar Cross Section
41.120 m², Large (>1 m²)

Expand to show TLE details & history
Last TLE update: 1 day ago

TLE from 1 day ago
0 STARLINK-38043
1 69712U 26147J   26236.36300874  .00015017  00000-0  46645-3 0  9997
2 69712  97.2850 273.0939 0000926  92.7127 267.4222 15.33453089 10070
Epoch: 2026-08-24T08:42Z
TLE epoch observation values (Epoch: 2026-08-24T08:42:43.955Z)
Latitude
0.00002°
Longitude
169.76496°
Altitude
468.66 km
Speed
7.632 km/s
True Right ascension
18h 12m 22s
True Declination
0° 00' 00"
Sunlit
Object was in full shadow at epoch
Visualization orbit readout
Latitude
Unknown
Longitude
Unknown
Altitude
Unknown
Speed
Unknown
Apparent Right ascension
Unknown
Apparent Declination
Unknown
Sunlit
N/A
Visualization observer readout
Local Sidereal Time
00:12:12
Azimuth
Unknown
Elevation
Unknown
Doppler factor
Unknown
Orbital elements
Apogee altitude
463.095 km
Perigee altitude
461.828 km
Semi-major axis
6,840.599 km
Eccentricity
0.00009
Inclination
97.285°
RAAN
273.0939°
Arg. of periapsis
92.7127°
True anomaly
267.4116°
Mean anomaly
267.4222°
Eccentric anomaly
267.4169°
Mean motion
3.83621 °/min
Orbital period
93.84 mins
BSTAR
0.00046645
Loading maneuver chart data...
Computing Atmospheric mass density...
Loading historical data...
Loading historical data...
Loading historical data...
Loading historical data...
Loading historical data...
Loading historical data...
Loading historical data...

Documentation

Showing up to 5 results
|